[[{"header":{"parameterUnit":"m.s-1","parameterCategory":1,"la1":30.2991,"la2":30.254,"lo1":-89.0895,"lo2":-89.0444,"dy":0.0017,"dx":0.0017,"nx":28,"ny":28,"refTime":"2024-08-06T03:00:00:Z","depth":0,"parameterNumber":2,"parameterNumberName":"U-component_of_WINDS"},"data":[0,0,0,0,0,0,0,0,0,0,0,0,0,0,0,0,0,0,0,0,0,0,0,0,0,0,0,0,0,0,0,0,0,0,0,0,0,0,0,0,0,0,0,0,0,0,0,0,0,0,0,0,0,0,0,0,0,0,0.2546,0.2546,0,0.2598,0.2598,0.2599,0.2659,0.266,0.2661,0.2662,0.2715,0.2716,0.2716,0,0,0,0,0,0,0,0,0,0,0,0,0,0.25,0.25,0.2546,0.2546,0.2547,0.2598,0.2598,0.2599,0.2659,0.266,0.2661,0.2662,0.2715,0.2715,0.2716,0,0,0,0,0,0,0,0,0,0,0,0,0,0.2533,0.2501,0.2546,0.2583,0.2587,0.2597,0.2598,0.2599,0.2659,0.266,0.2661,0.2663,0.2715,0.2715,0.2716,0.2694,0,0,0.2719,0.2719,0,0,0,0,0,0,0,0,0.2531,0.2534,0.2577,0.258,0.2585,0.2623,0.2602,0.2631,0.2658,0.2631,0.2662,0.2663,0.2683,0.2687,0.2694,0.2697,0.2699,0.2719,0.272,0.272,0.272,0,0,0,0,0,0,0,0.2528,0.2532,0.2566,0.2577,0.2582,0.2598,0.2604,0.2608,0.2649,0.2634,0.2638,0.2644,0.2686,0.2693,0.2695,0.27,0.2719,0.272,0.272,0.2721,0.269,0.2689,0,0,0,0,0,0,0.252,0.253,0.2565,0.2568,0.256,0.2597,0.2604,0.261,0.2649,0.2657,0.2642,0.2646,0.2691,0.2694,0.2697,0.2676,0.272,0.2721,0.2721,0.2692,0.269,0.2689,0,0,0,0,0,0,0.2519,0.2523,0.2563,0.255,0.2556,0.2597,0.2602,0.261,0.2617,0.2656,0.2664,0.2642,0.2692,0.2696,0.2695,0.2678,0.2721,0.2722,0.2693,0.2691,0.2689,0.2631,0,0,0,0,0,0,0.2517,0.2522,0.2514,0.255,0.2557,0.2559,0.2601,0.261,0.2618,0.2624,0.2657,0.2664,0.2693,0.2694,0.2696,0.268,0.2723,0.2695,0.2692,0.269,0.2635,0.2628,0.2621,0,0,0,0,0,0.2516,0.2495,0.2513,0.2517,0.2547,0.2558,0.2562,0.2596,0.2616,0.2609,0.2634,0.2663,0.268,0.2693,0.2696,0.2681,0.2696,0.2693,0.269,0.2638,0.2629,0.2622,0,0,0,0,0,0,0.2456,0.25,0.2521,0.2511,0.253,0.2568,0.2559,0.2585,0.2599,0.2603,0.2645,0.2652,0.2646,0.2664,0.2677,0.2663,0.2692,0.269,0.2652,0.2643,0.2637,0.2633,0.2723,0,0,0,0,0,0.2441,0.2446,0.2485,0.2472,0.2481,0.2518,0.2524,0.2549,0.257,0.2579,0.2604,0.2624,0.2634,0.264,0.2651,0.2638,0.2647,0.2629,0.2622,0.2616,0.2614,0.261,0.2603,0.2679,0.2679,0.2679,0,0,0.2411,0.2436,0.2437,0.2461,0.2479,0.2483,0.2524,0.2527,0.2531,0.2579,0.258,0.2599,0.2625,0.2618,0.2616,0.2632,0.2595,0.2613,0.2608,0.2608,0.2606,0.2599,0.2592,0.2677,0.2677,0.2678,0,0,0.236,0.2378,0.2371,0.2388,0.2415,0.244,0.2438,0.2472,0.2487,0.2489,0.2526,0.2531,0.2547,0.2564,0.2575,0.2532,0.2559,0.2534,0.2499,0.2494,0.2488,0.2483,0.2469,0.2463,0.2531,0.2531,0.2531,0,0.2319,0.2327,0.2364,0.2364,0.2374,0.2419,0.2412,0.2427,0.2456,0.2462,0.248,0.2502,0.2522,0.2521,0.251,0.2517,0.2517,0.253,0.2486,0.2481,0.2477,0.2464,0.2458,0.2528,0.2528,0.2529,0.2529,0,0.2277,0.2281,0.2272,0.2299,0.2309,0.2305,0.2342,0.2347,0.2372,0.2395,0.2397,0.2423,0.2441,0.2443,0.2466,0.2445,0.2455,0.2478,0.2509,0.2466,0.2455,0.245,0.2524,0.2525,0.2526,0.2526,0,0,0.2187,0.2236,0.2232,0.2246,0.2279,0.2284,0.2283,0.2301,0.2305,0.2324,0.2325,0.2339,0.2362,0.2374,0.24,0.2396,0.2362,0.2421,0.2422,0.241,0.2342,0.2324,0.2317,0.238,0.2379,0.2379,0.234,0,0.2142,0.2143,0.2177,0.2169,0.2175,0.2218,0.2218,0.2239,0.2261,0.227,0.2295,0.2305,0.2334,0.2342,0.234,0.2366,0.2349,0.2369,0.2383,0.2383,0.2375,0.2311,0.2292,0.2254,0.2336,0.2335,0.2334,0,0.2089,0.2105,0.2098,0.2133,0.2137,0.2136,0.2156,0.2163,0.2188,0.2205,0.222,0.2249,0.2253,0.2282,0.2287,0.2301,0.2308,0.2322,0.2322,0.2325,0.2356,0.2313,0.2242,0.2237,0.2327,0.2328,0.2328,0,0.2025,0.2045,0.2044,0.2054,0.2095,0.2094,0.2111,0.2137,0.2146,0.2164,0.2171,0.2189,0.2198,0.2212,0.2247,0.2264,0.2249,0.228,0.2264,0.2263,0.2258,0.2258,0.2189,0.2262,0.2262,0.2263,0.2263,0,0.1971,0.1965,0.2016,0.2016,0.2011,0.2051,0.2045,0.2066,0.209,0.2095,0.2133,0.2137,0.2182,0.2191,0.2218,0.222,0.2224,0.2238,0.2246,0.2235,0.2233,0.2241,0.2244,0.2261,0.2261,0.2262,0.2262,0,0.1899,0.1933,0.1935,0.1974,0.1983,0.1978,0.2012,0.2013,0.2039,0.2045,0.2048,0.2088,0.2102,0.2137,0.216,0.2178,0.2172,0.2185,0.2163,0.2168,0.215,0.2152,0.2084,0.2077,0.2154,0.2153,0.2152,0,0.1863,0.1859,0.1898,0.1904,0.192,0.1928,0.1938,0.1978,0.1987,0.2016,0.2014,0.2031,0.2046,0.2065,0.2097,0.2115,0.2129,0.2104,0.2132,0.2122,0.213,0.213,0.213,0.2098,0.2097,0.2096,0.2095,0,0.1794,0.1812,0.1824,0.1843,0.1854,0.187,0.1889,0.1892,0.1937,0.1945,0.1959,0.1971,0.1994,0.201,0.2034,0.2052,0.2082,0.2086,0.2084,0.2073,0.2061,0.2068,0.2147,0.2088,0.2089,0.2089,0.2089,0.209,0.174,0.1739,0.1767,0.178,0.1799,0.1816,0.1819,0.1846,0.1858,0.188,0.1903,0.1915,0.1942,0.1976,0.1993,0.2004,0.2019,0.2015,0.2014,0.2012,0.2008,0.2059,0.2008,0.2008,0.2009,0.2009,0.2009,0,0.1674,0.1694,0.1706,0.1732,0.1742,0.1769,0.1792,0.1799,0.1809,0.1832,0.1847,0.1864,0.188,0.1914,0.1933,0.1936,0.195,0.194,0.194,0.1944,0.1993,0.1994,0.1928,0.1928,0.1928,0.1928,0.1928,0.1928,0.1641,0.1643,0.1663,0.1675,0.1695,0.1707,0.1718,0.1735,0.1753,0.1771,0.1784,0.1806,0.1834,0.1856,0.1873,0.1883,0.1889,0.1874,0.1888,0.1933,0.194,0.1948,0.1949,0.1875,0.1875,0.1839,0.1839,0.1838]},{"header":{"parameterUnit":"m.s-1","parameterCategory":1,"la1":30.2991,"la2":30.254,"lo1":-89.0895,"lo2":-89.0444,"dy":0.0017,"dx":0.0017,"nx":28,"ny":28,"refTime":"2024-08-06T03:00:00:Z","depth":0,"parameterNumber":3,"parameterNumberName":"V-component_of_WINDS"},"data":[0,0,0,0,0,0,0,0,0,0,0,0,0,0,0,0,0,0,0,0,0,0,0,0,0,0,0,0,0,0,0,0,0,0,0,0,0,0,0,0,0,0,0,0,0,0,0,0,0,0,0,0,0,0,0,0,0,0,-0.6133,-0.6133,0,-0.6172,-0.6172,-0.6173,-0.6208,-0.6209,-0.6209,-0.621,-0.6248,-0.6249,-0.6249,0,0,0,0,0,0,0,0,0,0,0,0,0,-0.609,-0.609,-0.6133,-0.6133,-0.6134,-0.6172,-0.6172,-0.6173,-0.6208,-0.6209,-0.6209,-0.621,-0.6248,-0.6249,-0.6249,0,0,0,0,0,0,0,0,0,0,0,0,0,-0.6116,-0.609,-0.6133,-0.6156,-0.6159,-0.6172,-0.6172,-0.6173,-0.6208,-0.6209,-0.621,-0.621,-0.6248,-0.6249,-0.625,-0.6242,0,0,-0.6252,-0.6253,0,0,0,0,0,0,0,0,-0.6115,-0.6118,-0.6152,-0.6155,-0.6157,-0.6186,-0.6171,-0.6196,-0.6208,-0.6189,-0.621,-0.6211,-0.6227,-0.623,-0.6235,-0.6244,-0.6245,-0.6252,-0.6253,-0.6253,-0.6254,0,0,0,0,0,0,0,-0.6113,-0.6116,-0.6148,-0.6153,-0.6156,-0.6165,-0.6169,-0.6176,-0.6204,-0.6191,-0.6194,-0.6198,-0.6228,-0.6234,-0.6236,-0.6246,-0.6252,-0.6253,-0.6254,-0.6254,-0.625,-0.625,0,0,0,0,0,0,-0.6107,-0.6115,-0.6147,-0.6149,-0.6137,-0.6165,-0.617,-0.6176,-0.6204,-0.6209,-0.6197,-0.6199,-0.6232,-0.6235,-0.6238,-0.623,-0.6253,-0.6254,-0.6255,-0.6251,-0.625,-0.6249,0,0,0,0,0,0,-0.6106,-0.611,-0.6145,-0.6133,-0.6138,-0.6165,-0.6172,-0.6177,-0.6182,-0.6209,-0.6214,-0.6198,-0.6233,-0.6237,-0.6241,-0.6232,-0.6255,-0.6255,-0.6252,-0.6251,-0.625,-0.6215,0,0,0,0,0,0,-0.6105,-0.6109,-0.6107,-0.6132,-0.6139,-0.6147,-0.6171,-0.6177,-0.6184,-0.6187,-0.6211,-0.6215,-0.6234,-0.6239,-0.6242,-0.6234,-0.6256,-0.6252,-0.6251,-0.625,-0.6217,-0.6213,-0.621,0,0,0,0,0,-0.6103,-0.6095,-0.6106,-0.611,-0.6136,-0.6147,-0.615,-0.6172,-0.6183,-0.6181,-0.6198,-0.6215,-0.6233,-0.6239,-0.6242,-0.6235,-0.6253,-0.6251,-0.625,-0.6219,-0.6214,-0.621,0,0,0,0,0,0,-0.6067,-0.6099,-0.6112,-0.6112,-0.6126,-0.6153,-0.615,-0.6166,-0.6178,-0.618,-0.6206,-0.6212,-0.6212,-0.6224,-0.6231,-0.6229,-0.6245,-0.6245,-0.6221,-0.6216,-0.6213,-0.6209,-0.6257,0,0,0,0,0,-0.6059,-0.6066,-0.6093,-0.6091,-0.6098,-0.6123,-0.6128,-0.6144,-0.616,-0.6166,-0.6184,-0.6198,-0.6208,-0.6213,-0.6223,-0.622,-0.6225,-0.6216,-0.6213,-0.6209,-0.6208,-0.6207,-0.6203,-0.6244,-0.6244,-0.6245,0,0,-0.6042,-0.6061,-0.6063,-0.6084,-0.6097,-0.6103,-0.6127,-0.6133,-0.6137,-0.6167,-0.6172,-0.6185,-0.6204,-0.6204,-0.6205,-0.6214,-0.6198,-0.6208,-0.6205,-0.6205,-0.6205,-0.6201,-0.6197,-0.6243,-0.6244,-0.6244,0,0,-0.6015,-0.603,-0.6029,-0.6042,-0.6062,-0.6079,-0.6079,-0.6104,-0.6114,-0.6119,-0.6142,-0.6148,-0.6163,-0.6175,-0.6184,-0.6162,-0.6178,-0.6165,-0.6145,-0.6144,-0.614,-0.6137,-0.6129,-0.6126,-0.6164,-0.6164,-0.6164,0,-0.5991,-0.6001,-0.6027,-0.6031,-0.6039,-0.6067,-0.6067,-0.6078,-0.61,-0.6105,-0.6115,-0.6136,-0.615,-0.6153,-0.6148,-0.6154,-0.6155,-0.6161,-0.6139,-0.6136,-0.6134,-0.6126,-0.6123,-0.6162,-0.6162,-0.6162,-0.6162,0,-0.5971,-0.5978,-0.5975,-0.5996,-0.6005,-0.6006,-0.6031,-0.6037,-0.6053,-0.6068,-0.6074,-0.6093,-0.6107,-0.6109,-0.6124,-0.6115,-0.612,-0.6134,-0.6151,-0.6128,-0.6121,-0.6118,-0.6159,-0.616,-0.616,-0.6161,0,0,-0.5919,-0.5956,-0.5954,-0.5964,-0.5989,-0.5995,-0.5998,-0.6013,-0.6016,-0.6032,-0.6034,-0.6048,-0.6061,-0.6071,-0.6088,-0.6087,-0.6068,-0.6101,-0.6102,-0.6093,-0.6058,-0.6045,-0.6042,-0.6079,-0.6079,-0.6079,-0.6056,0,-0.5895,-0.5902,-0.5926,-0.5926,-0.5932,-0.596,-0.5963,-0.5979,-0.5994,-0.6002,-0.602,-0.6028,-0.6046,-0.6052,-0.6052,-0.607,-0.6061,-0.6072,-0.6081,-0.6081,-0.6074,-0.6038,-0.6025,-0.6002,-0.6053,-0.6053,-0.6053,0,-0.5866,-0.588,-0.5881,-0.5906,-0.591,-0.5912,-0.5927,-0.5935,-0.5953,-0.5965,-0.5976,-0.5995,-0.6,-0.6017,-0.6024,-0.6031,-0.6037,-0.6046,-0.6046,-0.6046,-0.6064,-0.6036,-0.5996,-0.5992,-0.6049,-0.6049,-0.6049,0,-0.5827,-0.5846,-0.5849,-0.5857,-0.5887,-0.5887,-0.59,-0.5919,-0.5927,-0.5941,-0.5946,-0.596,-0.5967,-0.5977,-0.6,-0.6011,-0.6004,-0.6023,-0.6013,-0.6012,-0.6008,-0.6008,-0.5967,-0.6015,-0.6015,-0.6015,-0.6015,0,-0.5796,-0.5795,-0.5831,-0.5833,-0.5833,-0.586,-0.586,-0.5875,-0.5892,-0.5897,-0.5923,-0.5927,-0.5957,-0.5965,-0.5983,-0.5985,-0.5989,-0.5998,-0.6002,-0.5994,-0.5993,-0.5997,-0.5998,-0.6014,-0.6014,-0.6014,-0.6015,0,-0.575,-0.5775,-0.578,-0.5808,-0.5816,-0.5814,-0.5839,-0.5841,-0.586,-0.5865,-0.5868,-0.5896,-0.5907,-0.5931,-0.5948,-0.596,-0.5957,-0.5966,-0.5951,-0.5953,-0.5941,-0.5941,-0.5899,-0.5895,-0.5947,-0.5947,-0.5946,0,-0.5727,-0.5727,-0.5757,-0.5762,-0.5774,-0.5782,-0.579,-0.5818,-0.5825,-0.5847,-0.5847,-0.586,-0.5871,-0.5887,-0.5908,-0.5921,-0.593,-0.5915,-0.5932,-0.5924,-0.5928,-0.5926,-0.5926,-0.591,-0.5909,-0.5908,-0.5908,0,-0.5684,-0.5697,-0.5707,-0.5723,-0.5732,-0.5745,-0.576,-0.5763,-0.5794,-0.5801,-0.5812,-0.5821,-0.5839,-0.5851,-0.5867,-0.588,-0.5899,-0.5903,-0.5901,-0.5892,-0.5882,-0.5886,-0.5938,-0.5903,-0.5904,-0.5904,-0.5904,-0.5904,-0.5648,-0.565,-0.5671,-0.5682,-0.5696,-0.571,-0.5713,-0.5733,-0.5743,-0.5759,-0.5776,-0.5785,-0.5805,-0.5829,-0.5841,-0.5849,-0.5858,-0.5855,-0.5854,-0.5853,-0.5849,-0.5883,-0.5852,-0.5852,-0.5852,-0.5852,-0.5853,0,-0.5605,-0.562,-0.5631,-0.5651,-0.566,-0.5678,-0.5696,-0.5702,-0.571,-0.5727,-0.5738,-0.5751,-0.5763,-0.5787,-0.5801,-0.5802,-0.5811,-0.5805,-0.5804,-0.5807,-0.584,-0.584,-0.5798,-0.5798,-0.5798,-0.5798,-0.5798,-0.5798,-0.5583,-0.5586,-0.5602,-0.5612,-0.5628,-0.5638,-0.5646,-0.5658,-0.5672,-0.5686,-0.5696,-0.5712,-0.5732,-0.5748,-0.5759,-0.5766,-0.5769,-0.576,-0.5769,-0.5799,-0.5804,-0.5809,-0.5809,-0.5761,-0.5761,-0.5734,-0.5734,-0.5734]}]]